Wichita Mid Continent Airport
KICT : now visible

Airfield :











YOU CAN JOIN US ON...

 
LOGIN :

Register | Disclaimer

   EN    FR    IT 

 









Legend :    VFR   Marginal VFR   IFR   Intensive IFR   Very Intensive IFR
Visi :
Ceiling :
>= 8 km
>= 3000ft
5 to 8 km
1000 to 3000 ft
1500m to 5 km
500 to 1000 ft
800 to 1500m
200 to 500 ft
< 800m
< 200 ft
Symbols :   Thunderstorms  Fog  Heavy snow  Heavy precipitations  Wind > 20 kt







- Airport Elevation : 1333 ft
- IATA code : ICT


KICT - Wichita Mid Continent

CURRENT METAR :
  • 221753Z 33016KT 10SM OVC025 18/12 A3004 RMK AO2 SLP162 T01830117 10211 20167 51021

EXPIRED METARs :
  • 221653Z 36013KT 10SM OVC025 19/12 A3002 RMK AO2 SLP157 T01940122
  • 221553Z 34016KT 10SM BKN024 20/12 A2999 RMK AO2 SLP146 T02000122

TAF KICT
Valid from the 22 at 18:00 until the 23 at 18:00 UTC


221720Z 2218/2318 35013KT P6SM BKN025
FM222200 35011KT P6SM BKN045
FM231500 02010KT P6SM OVC025
KZKC FIR / North America



MET'MAP, your aeronautical weather chart ! - Copyright ORBIFLY December 2007 - Disclaimer

ORBIFLY MET'MAP TEAM :

Programming & Development : Alexandra Zaïnal
Concept & Development : Baudouin d'Aumeries
Co-Development & Prog : Marc-Olivier Méhu
Technical & hardware support : Manuel Goepfert

Contact : metmap@orbifly.com




SOURCES & CREDITS :

   NOAA       Earth
Advisory